Flagstaff, AZ

4:23 PM MST on November 23, 2017 (GMT -0700)
Flagstaff Pulliam

Weather History for KFLG - February, 2014

Change the Weather History Date:

Friday, February 21, 2014

  Actual Average Record
Temperature  
Mean Temperature 37 °F 33 °F  
Max Temperature 55 °F 46 °F 63 °F (2016)
Min Temperature 19 °F 20 °F -9 °F (1955)
Degree Days  
Heating Degree Days 28 32  
Month to date heating degree days 609 701  
Since 1 July heating degree days 4428 4617  
Cooling Degree Days 0 0  
Month to date cooling degree days 0 0  
Year to date cooling degree days 0 0  
Moisture  
Dew Point 10 °F    
Average Humidity 40    
Maximum Humidity 62    
Minimum Humidity 18    
Precipitation  
Precipitation 0.00 in 0.09 in 1.03 in (1944)
Month to date precipitation 0.12 1.60  
Year to date precipitation 0.29 3.65  
Snow  
Snow 0.00 in 0.70 in 10.00 in (1944)
Month to date snowfall 2.1 16.2  
Since 1 July snowfall 33.5 68.5  
Snow Depth 0.00 in    
Sea Level Pressure  
Sea Level Pressure 30.03 in    
Wind  
Wind Speed 5 mph (SW)    
Max Wind Speed 17 mph    
Max Gust Speed 23 mph    
Visibility 10 miles    
Events      
T = Trace of Precipitation, MM = Missing Value Source: NWS Daily Summary

Daily Weather History Graph

Daily Weather History Graph

Search for Another Location

Airport or City:

Trip Planner

Search our weather history database for the weather conditions in past years. The results will help you decide how hot, cold, wet, or windy it might be!

Date:

Astronomy

Feb. 21, 2014 Rise Set
Actual Time 7:05 AM MST 6:15 PM MST
Civil Twilight 6:40 AM MST 6:40 PM MST
Nautical Twilight 6:10 AM MST 7:10 PM MST
Astronomical Twilight 5:41 AM MST 7:39 PM MST
Moon No Moon Rise 10:48 AM MST (2/21)
Length of Visible Light 12h 00m
Length of Day
11h 09m
Waning Gibbous, 60% of the Moon is Illuminated
Feb 21
Waning Gibbous
Feb 22
Last Quarter
Mar 1
New
Mar 8
First Quarter
Mar 16
Full

Hourly Weather History & Observations

Time (MST) Temp. Windchill Dew Point Humidity Pressure Visibility Wind Dir Wind Speed Gust Speed Precip Events Conditions
12:57 AM 19.9 °F - 7.0 °F 57% 30.12 in 10.0 mi Calm Calm - N/A   Clear
1:57 AM 19.9 °F - 7.0 °F 57% 30.11 in 10.0 mi Calm Calm - N/A   Clear
2:57 AM 19.9 °F 14.9 °F 8.1 °F 60% 30.10 in 10.0 mi WNW 3.5 mph - N/A   Clear
3:57 AM 23.0 °F - 9.0 °F 55% 30.07 in 10.0 mi Calm Calm - N/A   Clear
4:57 AM 24.1 °F - 6.1 °F 46% 30.08 in 10.0 mi Calm Calm - N/A   Clear
5:57 AM 21.9 °F 17.2 °F 7.0 °F 53% 30.10 in 10.0 mi SW 3.5 mph - N/A   Clear
6:57 AM 21.9 °F - 6.1 °F 51% 30.14 in 10.0 mi Calm Calm - N/A   Clear
7:57 AM 27.0 °F 23.0 °F 6.1 °F 41% 30.15 in 10.0 mi SW 3.5 mph - N/A   Clear
8:57 AM 43.0 °F 40.3 °F 8.1 °F 24% 30.08 in 10.0 mi WSW 4.6 mph - N/A   Clear
9:57 AM 48.0 °F - 12.9 °F 24% 30.07 in 10.0 mi Variable 3.5 mph - N/A   Clear
10:57 AM 50.0 °F - 10.9 °F 21% 30.06 in 10.0 mi WSW 10.4 mph - N/A   Clear
11:57 AM 52.0 °F - 12.0 °F 20% 30.04 in 10.0 mi WSW 8.1 mph 17.3 mph N/A   Clear
12:57 PM 54.0 °F - 12.0 °F 19% 30.01 in 10.0 mi WSW 11.5 mph - N/A   Clear
1:57 PM 54.0 °F - 12.0 °F 19% 29.98 in 10.0 mi SW 16.1 mph 19.6 mph N/A   Clear
2:57 PM 55.0 °F - 12.0 °F 18% 29.96 in 10.0 mi North - - N/A   Clear
3:57 PM 53.1 °F - 10.0 °F 18% 29.95 in 10.0 mi WSW 12.7 mph 21.9 mph N/A   Clear
4:57 PM 53.1 °F - 10.9 °F 19% 29.94 in 10.0 mi WSW 10.4 mph 21.9 mph N/A   Clear
6:57 PM 43.0 °F 38.8 °F 12.0 °F 28% 30.00 in 10.0 mi SSW 6.9 mph - N/A   Clear
7:57 PM 37.9 °F 34.4 °F 10.9 °F 33% 30.00 in 10.0 mi SW 4.6 mph - N/A   Clear
8:57 PM 35.1 °F 31.0 °F 10.0 °F 35% 29.96 in 10.0 mi SW 4.6 mph - N/A   Clear
9:57 PM 30.9 °F 26.2 °F 10.0 °F 42% 29.95 in 10.0 mi SW 4.6 mph - N/A   Clear
10:57 PM 28.0 °F - 10.0 °F 47% 29.96 in 10.0 mi Calm Calm - N/A   Clear
11:57 PM 26.1 °F - 10.0 °F 51% 29.96 in 10.0 mi Calm Calm - N/A   Clear